STARLINK-35858

Last updated on Mon Dec 15 2025 00:02:12 GMT+0000 (Coordinated Universal Time)

1 66833U 25280N 25348.25003472 -.01725648 00000+0 -13428-1 0 9991 2 66833 69.9946 194.5180 0003496 270.9880 50.7365 15.74440089 3141
UTC large
Height (km)
Speed (km/s)
/
Latitude / Longitude
Inclination (degrees)
Orbital Period (minutes)
Azimuth
Elevation
Range (km)
Doppler Factor

Next 0 passes for location: London (51.5072 / 0.1276)

Sorry there are no passes over London.